Weather History for Wendover, UT

Change the Weather History Date:

Friday, November 16, 2012

  Actual Average Record
Temperature  
Mean Temperature 38 °F -  
Max Temperature 44 °F 45 °F 60 °F (1966)
Min Temperature 33 °F 28 °F 6 °F (1955)
Degree Days  
Heating Degree Days 26    
Moisture  
Dew Point 28 °F    
Average Humidity 66    
Maximum Humidity 75    
Minimum Humidity 57    
Precipitation  
Precipitation 0.00 in - - ()
Sea Level Pressure  
Sea Level Pressure 30.10 in    
Wind  
Wind Speed 3 mph (ENE)    
Max Wind Speed 8 mph    
Max Gust Speed -    
Visibility 10 miles    
Events      
Averages and records for this station are not official NWS values.
T = Trace of Precipitation, MM = Missing Value Source: NWS Daily Summary

Daily Weather History Graph

Daily Weather History Graph

Search for Another Location

Airport:

Trip Planner

Search our weather history database for the weather conditions in past years. The results will help you decide how hot, cold, wet, or windy it might be!

Date:

Astronomy

Nov. 16, 2012 Rise Set
Actual Time 7:24 AM MST 5:16 PM MST
Civil Twilight 6:55 AM MST 5:46 PM MST
Nautical Twilight 6:22 AM MST 6:19 PM MST
Astronomical Twilight 5:49 AM MST 6:51 PM MST
Moon 10:23 AM MST (11/16) 8:20 PM MST (11/16)
Length of Visible Light 10h 51m
Length of Day
9h 52m
Waxing Crescent, 12% of the Moon is Illuminated
Nov 16
Waxing Crescent
Nov 20
First Quarter
Nov 28
Full
Dec 6
Last Quarter
Dec 13
New

Hourly Weather History & Observations

Time (MST) Temp. Windchill Dew Point Humidity Pressure Visibility Wind Dir Wind Speed Gust Speed Precip Events Conditions
12:15 AM 33.8 °F 30.8 °F 24.8 °F 70% 30.16 in 10.0 mi ENE 3.5 mph - N/A   Clear
12:35 AM 33.8 °F 30.8 °F 24.8 °F 70% 30.15 in 10.0 mi ENE 3.5 mph - N/A   Partly Cloudy
12:55 AM 33.8 °F 30.8 °F 26.6 °F 75% 30.15 in 10.0 mi East 3.5 mph - N/A   Mostly Cloudy
1:15 AM 33.8 °F 30.8 °F 24.8 °F 70% 30.13 in 10.0 mi North 3.5 mph - N/A   Partly Cloudy
1:35 AM 33.8 °F 30.8 °F 26.6 °F 75% 30.13 in 10.0 mi WNW 3.5 mph - N/A   Scattered Clouds
1:55 AM 33.8 °F - 26.6 °F 75% 30.13 in 10.0 mi Calm Calm - N/A   Scattered Clouds
2:15 AM 33.8 °F - 24.8 °F 70% 30.13 in 10.0 mi Calm Calm - N/A   Clear
2:35 AM 33.8 °F - 24.8 °F 70% 30.14 in 10.0 mi Calm Calm - N/A   Clear
2:55 AM 35.6 °F - 26.6 °F 70% 30.13 in 10.0 mi Calm Calm - N/A   Clear
3:15 AM 33.8 °F - 24.8 °F 70% 30.13 in 10.0 mi Calm Calm - N/A   Clear
3:35 AM 33.8 °F - 23.0 °F 65% 30.12 in 10.0 mi Calm Calm - N/A   Mostly Cloudy
3:55 AM 33.8 °F - 24.8 °F 70% 30.12 in 10.0 mi Calm Calm - N/A   Mostly Cloudy
4:15 AM 33.8 °F - 24.8 °F 70% 30.11 in 10.0 mi Calm Calm - N/A   Mostly Cloudy
4:35 AM 33.8 °F 30.8 °F 24.8 °F 70% 30.10 in 10.0 mi NE 3.5 mph - N/A   Mostly Cloudy
4:55 AM 33.8 °F 28.6 °F 24.8 °F 70% 30.10 in 10.0 mi East 5.8 mph - N/A   Overcast
5:15 AM 33.8 °F - 26.6 °F 75% 30.12 in 10.0 mi Calm Calm - N/A   Overcast
5:35 AM 35.6 °F - 26.6 °F 70% 30.11 in 10.0 mi Calm Calm - N/A   Mostly Cloudy
5:55 AM 33.8 °F 28.6 °F 26.6 °F 75% 30.10 in 10.0 mi NNE 5.8 mph - N/A   Mostly Cloudy
6:15 AM 35.6 °F - 26.6 °F 70% 30.09 in 10.0 mi Calm Calm - N/A   Mostly Cloudy
6:35 AM 33.8 °F 29.6 °F 24.8 °F 70% 30.09 in 10.0 mi SSW 4.6 mph - N/A   Overcast
6:55 AM 33.8 °F 30.8 °F 24.8 °F 70% 30.11 in 10.0 mi SSW 3.5 mph - N/A   Overcast
7:15 AM 33.8 °F 28.6 °F 26.6 °F 75% 30.10 in 10.0 mi North 5.8 mph - N/A   Mostly Cloudy
7:35 AM 35.6 °F - 26.6 °F 70% 30.10 in 10.0 mi Calm Calm - N/A   Overcast
7:55 AM 35.6 °F - 26.6 °F 70% 30.10 in 10.0 mi Calm Calm - N/A   Scattered Clouds
8:15 AM 35.6 °F - 26.6 °F 70% 30.11 in 10.0 mi Calm Calm - N/A   Clear
8:35 AM 35.6 °F 32.8 °F 26.6 °F 70% 30.12 in 10.0 mi SW 3.5 mph - N/A   Partly Cloudy
8:55 AM 37.4 °F - 26.6 °F 65% 30.11 in 10.0 mi Calm Calm - N/A   Partly Cloudy
9:15 AM 37.4 °F 34.9 °F 26.6 °F 65% 30.12 in 10.0 mi SSE 3.5 mph - N/A   Scattered Clouds
9:35 AM 37.4 °F 34.9 °F 26.6 °F 65% 30.12 in 10.0 mi SW 3.5 mph - N/A   Partly Cloudy
9:55 AM 37.4 °F 32.8 °F 28.4 °F 70% 30.11 in 10.0 mi WNW 5.8 mph - N/A   Partly Cloudy
10:15 AM 37.4 °F 33.8 °F 28.4 °F 70% 30.12 in 10.0 mi South 4.6 mph - N/A   Partly Cloudy
10:35 AM 39.2 °F 35.9 °F 28.4 °F 65% 30.13 in 10.0 mi SE 4.6 mph - N/A   Clear
10:55 AM 39.2 °F 35.0 °F 28.4 °F 65% 30.12 in 10.0 mi ENE 5.8 mph - N/A   Clear
11:15 AM 39.2 °F 37.0 °F 28.4 °F 65% 30.12 in 10.0 mi ENE 3.5 mph - N/A   Scattered Clouds
11:35 AM 39.2 °F 35.9 °F 28.4 °F 65% 30.11 in 10.0 mi East 4.6 mph - N/A   Scattered Clouds
11:55 AM 39.2 °F 37.0 °F 28.4 °F 65% 30.10 in 10.0 mi SE 3.5 mph - N/A   Partly Cloudy
12:15 PM 39.2 °F 37.0 °F 28.4 °F 65% 30.09 in 10.0 mi NNE 3.5 mph - N/A   Clear
12:35 PM 39.2 °F 34.2 °F 28.4 °F 65% 30.10 in 10.0 mi South 6.9 mph - N/A   Partly Cloudy
12:55 PM 41.0 °F 39.0 °F 28.4 °F 61% 30.09 in 10.0 mi SE 3.5 mph - N/A   Clear
1:15 PM 41.0 °F 39.0 °F 28.4 °F 61% 30.08 in 10.0 mi ENE 3.5 mph - N/A   Clear
1:35 PM 41.0 °F 37.1 °F 30.2 °F 65% 30.07 in 10.0 mi NE 5.8 mph - N/A   Partly Cloudy
1:55 PM 42.8 °F 40.1 °F 30.2 °F 61% 30.07 in 10.0 mi East 4.6 mph - N/A   Clear
2:15 PM 42.8 °F 38.6 °F 30.2 °F 61% 30.06 in 10.0 mi East 6.9 mph - N/A   Clear
2:35 PM 44.6 °F 40.7 °F 30.2 °F 57% 30.06 in 10.0 mi ESE 6.9 mph - N/A   Clear
2:55 PM 42.8 °F 38.6 °F 30.2 °F 61% 30.06 in 10.0 mi ENE 6.9 mph - N/A   Clear
3:15 PM 42.8 °F 39.3 °F 30.2 °F 61% 30.07 in 10.0 mi ENE 5.8 mph - N/A   Partly Cloudy
3:35 PM 42.8 °F 39.3 °F 30.2 °F 61% 30.07 in 10.0 mi NNE 5.8 mph - N/A   Partly Cloudy
3:55 PM 44.6 °F 43.1 °F 30.2 °F 57% 30.07 in 10.0 mi NE 3.5 mph - N/A   Clear
4:15 PM 44.6 °F - 30.2 °F 57% 30.06 in 10.0 mi Calm Calm - N/A   Clear
4:35 PM 44.6 °F - 30.2 °F 57% 30.07 in 10.0 mi Calm Calm - N/A   Partly Cloudy
4:55 PM 42.8 °F 41.1 °F 30.2 °F 61% 30.06 in 10.0 mi ENE 3.5 mph - N/A   Partly Cloudy
5:15 PM 42.8 °F - 30.2 °F 61% 30.07 in 10.0 mi Calm Calm - N/A   Partly Cloudy
5:35 PM 42.8 °F - 30.2 °F 61% 30.07 in 10.0 mi Calm Calm - N/A   Mostly Cloudy
5:55 PM 42.8 °F - 30.2 °F 61% 30.07 in 10.0 mi Calm Calm - N/A   Scattered Clouds
6:15 PM 42.8 °F - 30.2 °F 61% 30.07 in 10.0 mi Calm Calm - N/A   Clear
6:35 PM 41.0 °F 37.1 °F 28.4 °F 61% 30.08 in 10.0 mi WSW 5.8 mph - N/A   Scattered Clouds
6:55 PM 41.0 °F - 28.4 °F 61% 30.08 in 10.0 mi Calm Calm - N/A   Mostly Cloudy
7:15 PM 39.2 °F 37.0 °F 28.4 °F 65% 30.08 in 10.0 mi NW 3.5 mph - N/A   Mostly Cloudy
7:35 PM 41.0 °F - 30.2 °F 65% 30.07 in 10.0 mi Calm Calm - N/A   Mostly Cloudy
7:55 PM 39.2 °F 37.0 °F 28.4 °F 65% 30.07 in 10.0 mi NE 3.5 mph - N/A   Mostly Cloudy
8:15 PM 39.2 °F 35.0 °F 28.4 °F 65% 30.07 in 10.0 mi East 5.8 mph - N/A   Overcast
8:35 PM 41.0 °F - 30.2 °F 65% 30.08 in 10.0 mi Calm Calm - N/A   Overcast
8:55 PM 39.2 °F 37.0 °F 28.4 °F 65% 30.08 in 10.0 mi West 3.5 mph - N/A   Mostly Cloudy
9:15 PM 39.2 °F 35.9 °F 28.4 °F 65% 30.08 in 10.0 mi WNW 4.6 mph - N/A   Partly Cloudy
9:35 PM 41.0 °F 38.0 °F 30.2 °F 65% 30.08 in 10.0 mi WNW 4.6 mph - N/A   Clear
9:55 PM 41.0 °F 39.0 °F 30.2 °F 65% 30.08 in 10.0 mi NW 3.5 mph - N/A   Mostly Cloudy
10:15 PM 39.2 °F 35.0 °F 30.2 °F 70% 30.08 in 10.0 mi NNE 5.8 mph - N/A   Overcast
10:35 PM 39.2 °F 33.6 °F 28.4 °F 65% 30.08 in 10.0 mi East 8.1 mph - N/A   Mostly Cloudy
10:55 PM 39.2 °F 35.9 °F 30.2 °F 70% 30.08 in 10.0 mi ESE 4.6 mph - N/A   Mostly Cloudy
11:15 PM 41.0 °F 37.1 °F 30.2 °F 65% 30.08 in 10.0 mi ESE 5.8 mph - N/A   Mostly Cloudy
11:35 PM 39.2 °F 35.0 °F 30.2 °F 70% 30.09 in 10.0 mi West 5.8 mph - N/A   Mostly Cloudy
11:55 PM 39.2 °F 35.9 °F 28.4 °F 65% 30.09 in 10.0 mi WNW 4.6 mph - N/A   Mostly Cloudy